Weather Roundup
Issued by NWS Corpus Christi, TX

Home | Current Version | Previous Version | Text Only | Print | Product List | Glossary On
Versions: 1 2 3 4 5 6 7 8 9 10 11 12 13 14 15 16 17 18 19 20 21 22 23 24 25 26 27 28 29 30 31 32 33 34 35 36 37 38 39 40 41 42 43 44 45 46 47 48 49 50
681
ASUS44 KCRP 282210
HRRCRP

SOUTH TEXAS REGIONAL WEATHER ROUNDUP
NATIONAL WEATHER SERVICE CORPUS CHRISTI TX
500 PM CDT SAT MAY 28 2016


TXZ229>244-282300-
...CORPUS CHRISTI AREA OBSERVATIONS...

CITY           SKY/WX    TMP DP  RH WIND       PRES   REMARKS
CORPUS CHRISTI PTSUNNY   87  75  67 SE17G25   29.90F HX  96
NAS CORPUS CHR PTSUNNY   86  78  77 SE18      29.90F HX  98
ROCKPORT       MOSUNNY   86  74  67 SE16      29.91F HX  94
KINGSVILLE NAS MOSUNNY   88  78  72 SE21G26   29.88F HX 101
ALICE          PTSUNNY   89  74  60 SE23G31   29.87F HX  98
FALFURRIAS     SUNNY     92  74  55 SE15G22   29.85F HX 101
$$

...VICTORIA AREA OBSERVATIONS...

CITY           SKY/WX    TMP DP  RH WIND       PRES   REMARKS
VICTORIA       MOSUNNY   86  73  65 S17       29.93F HX  93
BEEVILLE       PTSUNNY   89  78  71 SE17      29.90F HX 102
PLEASANTON     MOSUNNY   92  71  49 SE14G20   29.88S HX  99
SAN ANTONIO    MOSUNNY   90  73  57 SE16      29.90F HX  98
$$

...LAREDO AREA OBSERVATIONS...

CITY           SKY/WX    TMP DP  RH WIND       PRES   REMARKS
LAREDO         MOSUNNY   96  72  45 E14       29.82F HX 104
COTULLA        MOSUNNY   97  69  40 SE17G24   29.83F HX 103
DEL RIO        MOSUNNY   92  68  45 SE18G24   29.83F HX  96
MCALLEN        MOSUNNY   92  75  57 SE16G26   29.85F HX 103
HEBBRONVILLE   MOSUNNY   93  71  47 SE14G22   29.86F HX  99
$$

...OTHER TEXAS OBSERVATIONS...

CITY           SKY/WX    TMP DP  RH WIND       PRES   REMARKS
BROWNSVILLE    SUNNY     90  69  50 SE17      29.88F HX  94
HOUSTON        MOSUNNY   88  69  53 S10       29.94F HX  92
COL. STATION   SUNNY     89  73  59 SE13      29.93F HX  97
AUSTIN         MOSUNNY   90  72  55 S13       29.90F HX  97
WACO           SUNNY     90  72  55 S10       29.91F HX  97
FORT WORTH     MOSUNNY   87  73  62 SE12      29.91F HX  94
WICHITA FALLS  SUNNY     88  64  44 CALM      29.91F
LUBBOCK        MOSUNNY   87  34  15 VRB6      29.96F
EL PASO        MOSUNNY   92  -2   3 SW14G22   29.93F
$$

...MARINE OBSERVATIONS...

STATION/POSITION TIME  SKY/WX   TEMP    WIND        PRES    VSBY  WAVE   SWELL
                                AIR SEA DIR/SP/G                  HT/PER HT/PER
                 (UTC)          (F)     (DEG/KT/KT) (MB)    (MI)  (FT/S) (FT/S)
PORT ARANSAS     2200            81 83  120/ 17/ 19 1013.7F
BUOY 90 E PORT A 2150            81 81  140/ 14/ 16 1014.1F         5/ 7   3/ 7
BUOY 45 SE BAFFI 2150            81 81  140/ 12/ 14 1012.7F         7/ 8   7/ 8
BUOY 200 E PT IS 2150                                 N/A           5/ 6   3/ 8
BUOY 15 E GALVES 2150            81 84  130/  4/  8 1015.1F         3/ 7   3/ 7
$$




USA.gov is the U.S. government's official web portal to all federal, state and local government web resources and services.